Pineville, WV

1:48 AM EST on December 12, 2017 (GMT -0500)
Pineville

Weather History for KI16 - December, 2012

Change the Weather History Date:

Friday, December 7, 2012

  Actual Average (KBKW) Record (KBKW)
Temperature  
Mean Temperature 54 °F -  
Max Temperature 65 °F 42 °F 74 °F (1951)
Min Temperature 44 °F 28 °F -1 °F (1977)
Degree Days  
Heating Degree Days 10    
Growing Degree Days 4 (Base 50)    
Moisture  
Dew Point 49 °F    
Average Humidity 90    
Maximum Humidity 100    
Minimum Humidity 60    
Precipitation  
Precipitation 0.00 in - - ()
Sea Level Pressure  
Sea Level Pressure 30.06 in    
Wind  
Wind Speed - (North)    
Max Wind Speed -    
Max Gust Speed -    
Visibility 8 miles    
Events      
Averages and records for this station are not official NWS values.
T = Trace of Precipitation, MM = Missing Value Source: NWS Daily Summary

Daily Weather History Graph

Daily Weather History Graph

Search for Another Location

Airport or City:

Trip Planner

Search our weather history database for the weather conditions in past years. The results will help you decide how hot, cold, wet, or windy it might be!

Date:

Astronomy

Dec. 07, 2012 Rise Set
Actual Time 7:28 AM EST 5:07 PM EST
Civil Twilight 6:59 AM EST 5:36 PM EST
Nautical Twilight 6:26 AM EST 6:09 PM EST
Astronomical Twilight 5:54 AM EST 6:41 PM EST
Moon 12:52 AM EST (12/7) 12:58 PM EST (12/7)
Length of Visible Light 10h 37m
Length of Day
9h 39m
Last Quarter, 39% of the Moon is Illuminated
Dec 7
Last Quarter
Dec 13
New
Dec 20
First Quarter
Dec 28
Full
Jan 4
Last Quarter

Hourly Weather History & Observations

Time (EST) Temp. Dew Point Humidity Pressure Visibility Wind Dir Wind Speed Gust Speed Precip Events Conditions
12:15 AM 48.4 °F 48.4 °F 100% 30.13 in 7.0 mi North - - N/A   Overcast
12:35 AM 48.2 °F 48.2 °F 100% 30.13 in 7.0 mi North - - N/A   Overcast
12:55 AM 48.4 °F 48.4 °F 100% 30.12 in 7.0 mi North - - N/A   Overcast
1:15 AM 48.6 °F 48.6 °F 100% 30.12 in 5.0 mi North - - N/A   Overcast
1:35 AM 48.4 °F 48.4 °F 100% 30.12 in 5.0 mi North - - N/A   Overcast
1:55 AM 48.2 °F 48.2 °F 100% 30.12 in 4.0 mi North - - N/A   Overcast
2:15 AM 48.4 °F 48.4 °F 100% 30.12 in 5.0 mi North - - N/A   Overcast
2:35 AM 48.2 °F 48.2 °F 100% 30.12 in 5.0 mi North - - N/A   Overcast
2:55 AM 48.2 °F 48.2 °F 100% 30.11 in 4.0 mi North - - N/A   Overcast
3:15 AM 48.4 °F 48.4 °F 100% 30.11 in 5.0 mi North - - N/A   Overcast
3:35 AM 48.2 °F 48.2 °F 100% 30.11 in 5.0 mi North - - N/A   Overcast
3:55 AM 47.7 °F 47.7 °F 100% 30.10 in 3.0 mi North - - N/A   Mostly Cloudy
4:15 AM 46.9 °F 46.9 °F 100% 30.10 in 4.0 mi North - - N/A   Scattered Clouds
4:35 AM 46.6 °F 46.6 °F 100% 30.10 in 4.0 mi North - - N/A   Mostly Cloudy
4:55 AM 46.8 °F 46.8 °F 100% 30.10 in 5.0 mi North - - N/A   Overcast
5:15 AM 46.6 °F 46.6 °F 100% 30.10 in 4.0 mi North - - N/A   Overcast
5:35 AM 46.8 °F 46.8 °F 100% 30.10 in 4.0 mi North - - N/A   Overcast
5:55 AM 46.6 °F 46.6 °F 100% 30.10 in 5.0 mi North - - N/A   Overcast
6:15 AM 46.4 °F 46.4 °F 100% 30.11 in 4.0 mi North - - N/A   Overcast
6:35 AM 46.6 °F 46.6 °F 100% 30.11 in 4.0 mi North - - N/A   Overcast
6:55 AM 45.7 °F 45.7 °F 100% 30.11 in 3.0 mi North - - N/A   Mostly Cloudy
7:15 AM 45.1 °F 45.1 °F 100% 30.11 in 2.5 mi North - - N/A   Mostly Cloudy
7:35 AM 45.0 °F 45.0 °F 100% 30.11 in 4.0 mi North - - N/A   Overcast
7:55 AM 44.6 °F 44.6 °F 100% 30.11 in 1.0 mi North - - N/A   Overcast
8:15 AM 44.6 °F 44.6 °F 100% 30.11 in 1.0 mi North - - N/A   Mostly Cloudy
8:35 AM 46.0 °F 46.0 °F 100% 30.11 in 5.0 mi North - - N/A   Overcast
8:55 AM 47.7 °F 47.7 °F 100% 30.11 in 7.0 mi North - - N/A   Overcast
9:15 AM 49.1 °F 49.1 °F 100% 30.11 in 10.0 mi North - - N/A   Overcast
9:35 AM 51.1 °F 51.1 °F 100% 30.11 in 10.0 mi North - - N/A   Overcast
9:55 AM 52.9 °F 52.9 °F 100% 30.11 in 10.0 mi North - - N/A   Overcast
10:15 AM 54.9 °F 53.8 °F 96% 30.11 in 10.0 mi North - - N/A   Scattered Clouds
10:35 AM 57.2 °F 53.8 °F 88% 30.10 in 10.0 mi North - - N/A   Clear
10:55 AM 58.1 °F 52.2 °F 81% 30.10 in 10.0 mi North - - N/A   Clear
11:15 AM 59.0 °F 51.6 °F 76% 30.09 in 10.0 mi North - - N/A   Clear
11:35 AM 60.1 °F 51.8 °F 74% 30.08 in 10.0 mi North - - N/A   Clear
11:55 AM 60.8 °F 52.5 °F 74% 30.07 in 10.0 mi North - - N/A   Clear
12:15 PM 61.2 °F 52.5 °F 73% 30.06 in 10.0 mi North - - N/A   Clear
12:35 PM 61.7 °F 52.9 °F 73% 30.05 in 10.0 mi North - - N/A   Clear
12:55 PM 63.3 °F 52.9 °F 69% 30.04 in 10.0 mi North - - N/A   Clear
1:15 PM 64.0 °F 52.7 °F 67% 30.03 in 10.0 mi North - - N/A   Clear
1:35 PM 64.9 °F 52.7 °F 64% 30.03 in 10.0 mi North - - N/A   Clear
1:55 PM 64.8 °F 52.0 °F 63% 30.02 in 10.0 mi North - - N/A   Clear
2:15 PM 65.3 °F 52.2 °F 62% 30.01 in 10.0 mi North - - N/A   Scattered Clouds
2:35 PM 64.9 °F 51.3 °F 61% 30.01 in 10.0 mi North - - N/A   Scattered Clouds
2:55 PM 65.1 °F 51.4 °F 61% 30.01 in 10.0 mi North - - N/A   Mostly Cloudy
3:15 PM 64.6 °F 51.1 °F 62% 30.00 in 10.0 mi North - - N/A   Mostly Cloudy
3:35 PM 64.4 °F 50.4 °F 60% 30.00 in 10.0 mi North - - N/A   Scattered Clouds
3:55 PM 64.2 °F 50.5 °F 61% 30.00 in 10.0 mi North - - N/A   Scattered Clouds
4:15 PM 63.5 °F 51.1 °F 64% 30.00 in 10.0 mi North - - N/A   Scattered Clouds
4:35 PM 60.8 °F 53.1 °F 76% 30.00 in 10.0 mi North - - N/A   Mostly Cloudy
4:55 PM 58.5 °F 52.0 °F 79% 30.00 in 10.0 mi North - - N/A   Scattered Clouds
5:15 PM 55.6 °F 51.3 °F 85% 30.00 in 10.0 mi North - - N/A   Scattered Clouds
5:55 PM 53.1 °F 50.2 °F 90% 30.00 in 10.0 mi North - - N/A   Clear
6:15 PM 51.6 °F 49.3 °F 92% 30.00 in 10.0 mi North - - N/A   Clear
6:35 PM 50.9 °F 49.1 °F 94% 30.00 in 10.0 mi North - - N/A   Clear
7:15 PM 49.1 °F 47.8 °F 95% 30.00 in 10.0 mi North - - N/A   Scattered Clouds
7:35 PM 48.9 °F 47.8 °F 96% 30.00 in 10.0 mi North - - N/A   Clear
7:55 PM 47.8 °F 47.3 °F 98% 30.01 in 10.0 mi North - - N/A   Clear
8:15 PM 46.8 °F 46.0 °F 97% 30.01 in 10.0 mi North - - N/A   Clear
8:35 PM 46.4 °F 45.5 °F 97% 30.01 in 10.0 mi North - - N/A   Clear
8:55 PM 46.4 °F 45.9 °F 98% 30.01 in 10.0 mi North - - N/A   Mostly Cloudy
9:15 PM 47.1 °F 46.4 °F 97% 30.01 in 10.0 mi North - - N/A   Overcast
9:35 PM 47.8 °F 47.3 °F 98% 30.00 in 10.0 mi North - - N/A   Overcast
9:55 PM 48.9 °F 48.0 °F 97% 30.00 in 10.0 mi North - - N/A   Overcast
10:15 PM 49.6 °F 48.4 °F 95% 30.00 in 10.0 mi North - - N/A   Overcast
10:35 PM 50.0 °F 48.7 °F 95% 30.00 in 10.0 mi North - - N/A   Overcast
10:55 PM 50.0 °F 48.9 °F 96% 30.00 in 10.0 mi North - - N/A   Overcast
11:35 PM 49.6 °F 48.9 °F 97% 30.00 in 10.0 mi North - - N/A   Overcast
11:55 PM 50.0 °F 49.1 °F 97% 30.00 in 10.0 mi North - - N/A   Overcast